Regional Weather Roundup
Issued by NWS

Home | Current Version | Previous Version | Graphics & Text | Print | Product List | Glossary On
Versions: 1 2 3 4 5 6 7 8 9 10 11 12 13 14 15 16 17 18 19 20 21 22 23 24 25 26 27 28 29 30 31 32 33 34 35 36 37 38 39 40 41 42 43 44 45 46 47 48 49 50
000
ASUS43 KTOP 020659
RWRKS

WEATHER ROUNDUP FOR KANSAS
NATIONAL WEATHER SERVICE GOODLAND KS
200 AM CDT SAT AUG 02 2014

NOTE:  "FAIR" INDICATES FEW OR NO CLOUDS BELOW 12,000 FEET WITH NO
SIGNIFICANT WEATHER AND/OR OBSTRUCTIONS TO VISIBILITY.

KSZ001>006-013>018-027>032-041>047-020800-
NORTHWEST KANSAS

CITY           SKY/WX    TMP DP  RH WIND       PRES   REMARKS
GOODLAND       PTCLDY    62  54  74 S8        30.20F
HAYS           CLEAR     61  50  67 CALM      30.13S
HILL CITY      CLEAR     62  54  74 CALM      30.15S
RUSSELL        CLEAR     64  55  72 N7        30.10F
$$

KSZ061>065-074>080-084>089-020800-
SOUTHWEST KANSAS

CITY           SKY/WX    TMP DP  RH WIND       PRES   REMARKS
DODGE CITY     MOCLDY    69  58  67 NE3       30.15S
ELKHART          N/A     70  56  61 NW5         N/A
GARDEN CITY    MOCLDY    69  58  67 S5        30.16F
GREAT BEND       N/A     63  55  77 CALM      30.11S
LIBERAL        MOCLDY    68  57  68 W5        30.19R
$$

KSZ066>073-081>083-090>101-020800-
SOUTHEAST KANSAS

CITY           SKY/WX    TMP DP  RH WIND       PRES   REMARKS
CHANUTE        PTCLDY    65  63  93 CALM      30.09R
COFFEYVILLE    CLEAR     66  63  90 CALM      30.08S
HUTCHINSON     CLEAR     62  53  72 CALM      30.08S
NEWTON         CLEAR     66  59  77 S6        30.12S
PARSONS        CLEAR     64  61  90 CALM      30.10R
WICHITA INTL   PTCLDY    67  64  90 SE6       30.08R
WINFIELD       CLEAR     68  65  90 CALM      30.09S
$$

KSZ007>012-019>026-033>040-048>060-102>105-020800-
NORTHEAST KANSAS

CITY           SKY/WX    TMP DP  RH WIND       PRES   REMARKS
CONCORDIA      CLEAR     66  63  90 NE5       30.09S
EMPORIA        MOCLDY    68  64  87 S6        30.09R
LAWRENCE       MOCLDY    67  62  84 CALM      30.10S
MANHATTAN      CLEAR     72  64  76 S6        30.07S
OLATHE IND     CLOUDY    70  62  76 CALM      30.11S
OLATHE EXE     MOCLDY    69  61  75 SE3       30.10S
SALINA         CLEAR     67  58  72 CALM      30.07S
TOPEKA BILLARD CLEAR     69  64  84 E6        30.09S
TOPEKA FORBES  CLEAR     69  63  81 E6        30.10R
$$



USA.gov is the U.S. government's official web portal to all federal, state and local government web resources and services.